This demonstration page uses our WeatherBlox Daily Observations layout. Learn more.

Left ArrowRight Arrow

Hourly Observations for November 7, 2018

Temp ( °F °C ) Dew Point ( °F °C ) Humidity (%) Winds ( mph kmh ) Pressure ( in mb ) Visibility ( mi km ) Precip ( " mm )
12:57 am 00:57 Clear 28 -2.2 19 -7.2 69 69 NNW 6 9 30.26 1025 10 16 0.00 0.00
1:57 am 01:57 Clear 27 -2.8 18 -7.8 69 69 N 8 13 30.27 1025 10 16 0.00 0.00
2:57 am 02:57 Mostly Cloudy 28 -2.2 20 -6.7 72 72 N 14 22 30.28 1025 10 16 0.00 0.00
4:57 am 04:57 Cloudy 26 -3.3 18 -7.8 71 71 N 14 22 30.31 1026 10 16 0.00 0.00
5:57 am 05:57 Cloudy 25 -3.9 18 -7.8 75 75 N 15 24 30.33 1027 10 16 0.00 0.03
6:57 am 06:57 Cloudy with Light Snow 25 -3.9 19 -7.2 78 78 N 16 26 30.34 1027 9 14 0.00 0.03
7:57 am 07:57 Cloudy 24 -4.4 20 -6.7 84 84 N 17 28 30.35 1028 9 14 0.00 0.03
8:57 am 08:57 Cloudy 27 -2.8 18 -7.8 69 69 N 21 33 30.37 1029 10 16 0.00 0.00
9:57 am 09:57 Cloudy 27 -2.8 18 -7.8 69 69 N 16 26 30.40 1029 10 16 0.00 0.00
10:57 am 10:57 Mostly Cloudy 30 -1.1 19 -7.2 64 64 NNW 12 19 30.40 1029 10 16 0.00 0.00
11:57 am 11:57 Mostly Sunny 32 0 20 -6.7 61 61 N 12 19 30.37 1029 10 16 0.00 0.00
12:57 pm 12:57 Sunny 35 1.7 19 -7.2 52 52 N 8 13 30.34 1028 10 16 0.00 0.00
1:57 pm 13:57 Sunny 37 2.8 19 -7.2 48 48 N 8 13 30.33 1027 10 16 0.00 0.00
2:57 pm 14:57 Sunny 37 2.8 17 -8.3 44 44 N 7 11 30.32 1027 10 16 0.00 0.00
3:57 pm 15:57 Mostly Sunny 37 2.8 17 -8.3 44 44 NNE 7 11 30.32 1027 10 16 0.00 0.00
4:57 pm 16:57 Sunny 36 2.2 18 -7.8 48 48 NNE 7 11 30.32 1027 10 16 0.00 0.00
5:57 pm 17:57 Clear 32 0 18 -7.8 56 56 ENE 5 7 30.34 1027 10 16 0.00 0.00
6:57 pm 18:57 Clear 31 -0.6 19 -7.2 61 61 E 5 7 30.35 1028 10 16 0.00 0.00
7:57 pm 19:57 Cloudy 29 -1.7 22 -5.6 75 75 Calm 30.37 1029 10 16 0.00 0.00
9:57 pm 21:57 Cloudy 31 -0.6 24 -4.4 76 76 E 3 6 30.36 1028 10 16 0.00 0.00
10:57 pm 22:57 Cloudy 32 0 24 -4.4 73 73 E 3 6 30.36 1028 10 16 0.00 0.00
11:57 pm 23:57 Cloudy 31 -0.6 24 -4.4 76 76 E 3 6 30.36 1028 10 16 0.00 0.03

Powered by AerisWeather